Weather History for KLXV - February, 2014

Change the Weather History Date:

Monday, February 17, 2014

  Actual Average Record
Temperature  
Mean Temperature 21 °F -  
Max Temperature 39 °F 32 °F 45 °F (1989)
Min Temperature 2 °F 5 °F -16 °F (1978)
Degree Days  
Heating Degree Days 44 47  
Month to date heating degree days 811 810  
Since 1 July heating degree days 7050 7207  
Cooling Degree Days 0 0  
Month to date cooling degree days 0 0  
Year to date cooling degree days 0 0  
Moisture  
Dew Point -5 °F    
Average Humidity 39    
Maximum Humidity 64    
Minimum Humidity 13    
Precipitation  
Precipitation 0.00 in 0.02 in 0.14 in (2003)
Month to date precipitation 0.87 0.39  
Year to date precipitation 3.83 1.01  
Sea Level Pressure  
Sea Level Pressure 30.09 in    
Wind  
Wind Speed 6 mph (NE)    
Max Wind Speed 23 mph    
Max Gust Speed 30 mph    
Visibility 10 miles    
Events      
T = Trace of Precipitation, MM = Missing Value Source: NWS Daily Summary

Daily Weather History Graph

Daily Weather History Graph

Search for Another Location

Airport or City:

Trip Planner

Search our weather history database for the weather conditions in past years. The results will help you decide how hot, cold, wet, or windy it might be!

Date:

Astronomy

Feb. 17, 2014 Rise Set
Actual Time 6:54 AM MST 5:44 PM MST
Civil Twilight 6:27 AM MST 6:12 PM MST
Nautical Twilight 5:55 AM MST 6:43 PM MST
Astronomical Twilight 5:24 AM MST 7:14 PM MST
Moon 8:40 PM MST (2/17) 7:57 AM MST (2/17)
Length of Visible Light 11h 44m
Length of Day
10h 50m
Waning Gibbous, 93% of the Moon is Illuminated
Feb 17
Waning Gibbous
Feb 22
Last Quarter
Mar 1
New
Mar 8
First Quarter
Mar 16
Full

Hourly Weather History & Observations

Time (MST) Temp. Windchill Dew Point Humidity Pressure Visibility Wind Dir Wind Speed Gust Speed Precip Events Conditions
12:53 AM 18.0 °F 4.2 °F 3.9 °F 54% 30.07 in 10.0 mi WNW 13.8 mph - N/A   Overcast
1:53 AM 17.1 °F 3.6 °F 3.9 °F 56% 30.09 in 10.0 mi WNW 12.7 mph - N/A   Clear
2:53 AM 14.0 °F 3.9 °F 3.9 °F 64% 30.13 in 10.0 mi NE 6.9 mph - N/A   Clear
3:53 AM 12.9 °F 5.2 °F 1.0 °F 59% 30.13 in 10.0 mi ENE 4.6 mph - N/A   Clear
4:53 AM 8.1 °F -4.3 °F -4.0 °F 58% 30.18 in 10.0 mi East 8.1 mph - N/A   Clear
5:53 AM 7.0 °F -1.7 °F -8.0 °F 51% 30.24 in 10.0 mi ENE 4.6 mph - N/A   Clear
6:53 AM 3.9 °F -9.4 °F -9.0 °F 55% 30.24 in 10.0 mi NE 8.1 mph - N/A   Clear
7:53 AM 8.1 °F -4.3 °F -9.9 °F 44% 30.23 in 10.0 mi East 8.1 mph - N/A   Clear
8:53 AM 16.0 °F - -8.0 °F 34% 30.22 in 10.0 mi Calm Calm - N/A   Clear
9:53 AM 28.9 °F 21.1 °F -11.0 °F 17% 30.15 in 10.0 mi NNE 8.1 mph - N/A   Clear
10:53 AM 33.1 °F - -13.0 °F 13% 30.13 in 10.0 mi Calm Calm - N/A   Clear
11:53 AM 32.0 °F - -11.9 °F 15% 30.11 in 10.0 mi Calm Calm - N/A   Clear
12:53 PM 35.1 °F 29.3 °F -6.0 °F 17% 30.04 in 10.0 mi West 6.9 mph - N/A   Clear
1:53 PM 37.0 °F 29.8 °F -5.1 °F 17% 30.01 in 10.0 mi West 10.4 mph - N/A   Clear
2:53 PM 36.0 °F 28.5 °F -4.0 °F 18% 30.01 in 10.0 mi SSE 10.4 mph - N/A   Clear
3:53 PM 33.1 °F 26.1 °F -0.9 °F 23% 30.02 in 10.0 mi SSE 8.1 mph - N/A   Clear
4:53 PM 30.9 °F - -6.0 °F 20% 30.06 in 10.0 mi Calm Calm - N/A   Clear
5:53 PM 28.0 °F 20.8 °F -6.0 °F 23% 30.09 in 10.0 mi North 6.9 mph - N/A   Clear
6:53 PM 27.0 °F - -7.1 °F 23% 30.12 in 10.0 mi Calm Calm - N/A   Clear
7:53 PM 25.0 °F 18.1 °F -9.0 °F 22% 30.09 in 10.0 mi ENE 5.8 mph - N/A   Clear
8:53 PM 25.0 °F 18.1 °F -5.1 °F 27% 30.04 in 10.0 mi NNE 5.8 mph - N/A   Clear
9:53 PM 27.0 °F 21.6 °F -4.0 °F 26% 29.94 in 10.0 mi Variable 4.6 mph - N/A   Clear
10:53 PM 24.1 °F 16.0 °F -0.9 °F 34% 29.91 in 10.0 mi NE 6.9 mph - N/A   Clear
11:53 PM 24.1 °F 16.0 °F -2.0 °F 32% 29.91 in 10.0 mi ENE 6.9 mph - N/A   Clear